FW6934 Weather Reports


time (UTC)temp
F
wind
direction
speed
knots
gust
knots
rain 1hr
in
rain 24hr
in
rain mn
in
humidity
%
barometer
mb
20260905022555 57 101 0.9 1.7 0.00 0.10 0.10 84 1002.4
20260905022005 57 101 0.0 0.9 0.00 0.10 0.10 84 1002.5
20260905021540 57 101 0.0 0.9 0.00 0.10 0.10 83 1002.4
20260905021045 57 101 0.0 0.9 0.00 0.10 0.10 83 1002.4
20260905020553 58 101 0.0 1.7 0.00 0.10 0.10 83 1002.3
20260905020033 58 101 0.9 1.7 0.00 0.10 0.10 83 1002.2
20260905015538 58 101 0.0 0.9 0.00 0.10 0.10 83 1002.2
20260905015042 58 101 0.0 0.0 0.00 0.10 0.10 83 1002.1
20260905014507 58 101 0.0 0.0 0.00 0.10 0.10 83 1002.1
20260905014027 59 101 0.0 0.0 0.00 0.10 0.10 83 1002.1
20260905013536 59 101 0.0 1.7 0.00 0.10 0.10 83 1002.1
20260905013120 59 101 0.0 1.7 0.00 0.10 0.10 82 1002.0
20260905012517 59 101 0.0 0.0 0.00 0.10 0.10 82 1002.1
20260905012024 59 101 0.0 0.0 0.00 0.10 0.10 82 1002.0
20260905011557 59 101 0.0 1.7 0.00 0.10 0.10 82 1001.9
20260905011001 60 101 0.0 1.7 0.00 0.10 0.10 82 1002.0
20260905010510 60 101 0.0 0.9 0.00 0.10 0.10 81 1002.0
20260905010032 60 101 0.0 0.9 0.00 0.10 0.10 80 1002.0
20260905005537 60 101 0.0 0.9 0.00 0.10 0.10 80 1002.0
20260905005044 60 101 0.0 1.7 0.00 0.10 0.10 79 1002.0
20260905004522 60 101 0.0 2.6 0.00 0.10 0.10 78 1002.0
20260905004029 60 101 0.9 2.6 0.00 0.10 0.10 79 1002.0
20260905003539 61 355 0.0 2.6 0.00 0.10 0.10 79 1002.0
20260905003018 61 355 0.9 2.6 0.01 0.10 0.10 79 1001.9
20260905002526 60 42 0.0 2.6 0.01 0.10 0.10 80 1001.9
20260905002038 61 42 0.0 2.6 0.01 0.10 0.10 80 1001.9
20260905001502 61 67 0.9 2.6 0.01 0.10 0.10 80 1001.9
20260905001007 61 120 0.0 2.6 0.01 0.10 0.10 81 1002.1
20260905000522 61 120 0.0 2.6 0.01 0.10 0.10 81 1002.1
20260905000055 61 184 0.0 1.7 0.01 0.10 0.10 81 1002.2
20260904235600 62 184 0.0 2.6 0.01 0.10 0.10 81 1002.0
20260904235001 62 184 0.0 2.6 0.01 0.10 0.10 81 1002.1
20260904234545 62 212 0.0 2.6 0.01 0.10 0.10 81 1002.0
20260904234051 62 213 0.9 2.6 0.01 0.10 0.10 80 1001.9
20260904233559 62 202 0.9 2.6 0.01 0.10 0.10 81 1001.9
20260904233039 62 204 0.9 2.6 0.00 0.09 0.09 80 1001.8
20260904232548 63 172 0.0 2.6 0.00 0.09 0.09 79 1001.7
20260904232053 63 118 0.0 2.6 0.00 0.09 0.09 77 1001.7
20260904231506 63 138 0.0 3.5 0.00 0.09 0.09 77 1001.6
20260904231017 63 138 0.9 3.5 0.00 0.09 0.09 76 1001.7
20260904230529 63 247 0.9 4.3 0.00 0.09 0.09 75 1001.6
20260904230044 64 187 0.0 4.3 0.00 0.11 0.09 73 1001.6
20260904225551 64 177 1.7 4.3 0.00 0.11 0.09 72 1001.6
20260904225056 64 196 0.9 3.5 0.00 0.11 0.09 71 1001.4
20260904224533 64 242 0.9 6.1 0.00 0.11 0.09 70 1001.4
20260904224043 64 189 2.6 6.1 0.00 0.11 0.09 69 1001.4
20260904223548 64 125 0.9 3.5 0.00 0.11 0.09 70 1001.4
20260904223021 64 319 0.9 5.2 0.00 0.11 0.09 71 1001.4
20260904222530 64 200 0.9 5.2 0.00 0.11 0.09 68 1001.3
20260904222035 64 192 0.9 4.3 0.00 0.11 0.09 68 1001.4
20260904221554 64 167 0.0 4.3 0.00 0.11 0.09 66 1001.2
20260904221059 65 295 0.9 6.1 0.00 0.11 0.09 68 1001.3
20260904220508 65 175 1.7 7.8 0.00 0.11 0.09 67 1001.3
20260904220041 65 224 1.7 7.8 0.00 0.11 0.09 66 1001.2
20260904215547 65 207 2.6 8.7 0.00 0.11 0.09 68 1001.2
20260904215053 66 194 2.6 7.8 0.00 0.11 0.09 71 1001.3
20260904214529 66 154 2.6 4.3 0.00 0.11 0.09 66 1001.1
20260904214037 66 166 0.9 4.3 0.00 0.11 0.09 66 1001.1
20260904213543 65 113 0.9 4.3 0.00 0.11 0.09 65 1000.9
20260904213009 65 316 1.7 7.0 0.00 0.11 0.09 71 1000.9
20260904212516 64 102 1.7 7.0 0.00 0.11 0.09 68 1000.9
20260904212021 64 289 0.9 3.5 0.00 0.11 0.09 68 1001.0
20260904211600 63 240 0.9 4.3 0.00 0.11 0.09 75 1001.0
20260904211003 63 253 1.7 4.3 0.00 0.11 0.09 75 1001.0
20260904210509 63 245 0.9 3.5 0.00 0.11 0.09 75 1000.9
20260904210047 64 188 0.9 5.2 0.00 0.17 0.09 71 1000.9
20260904205557 64 106 0.9 5.2 0.00 0.17 0.09 69 1000.8
20260904205103 64 259 1.7 5.2 0.00 0.17 0.09 70 1000.8
20260904204539 64 55 0.0 3.5 0.00 0.17 0.09 72 1000.8
20260904204051 64 90 0.9 3.5 0.00 0.17 0.09 71 1000.8
20260904203557 64 42 0.9 3.5 0.00 0.17 0.09 71 1000.7
20260904203035 64 58 1.7 2.6 0.00 0.17 0.09 71 1000.7
20260904202541 64 19 0.9 7.0 0.00 0.17 0.09 72 1000.7
20260904202049 64 106 0.9 7.0 0.00 0.17 0.09 71 1000.8
20260904201524 65 38 2.6 6.1 0.00 0.17 0.09 74 1000.6
20260904201030 64 121 1.7 4.3 0.00 0.17 0.09 72 1000.8
20260904200538 63 304 0.0 2.6 0.00 0.17 0.09 75 1000.7
20260904200002 63 269 0.9 4.3 0.00 0.17 0.09 78 1000.7
20260904195523 63 52 0.9 4.3 0.00 0.17 0.09 77 1000.7
20260904195013 63 11 0.9 3.5 0.00 0.17 0.09 81 1000.8
20260904194603 63 360 0.9 2.6 0.00 0.17 0.09 76 1000.8
20260904194055 63 30 0.9 2.6 0.00 0.17 0.09 75 1001.0
20260904193603 63 355 0.9 3.5 0.00 0.17 0.09 76 1000.9
20260904193037 63 350 0.9 3.5 0.00 0.17 0.09 77 1000.9
20260904192546 63 238 0.9 2.6 0.00 0.17 0.09 81 1000.9
20260904192053 61 360 0.9 2.6 0.00 0.17 0.09 78 1001.0
20260904191519 61 39 0.0 2.6 0.00 0.17 0.09 80 1000.9
20260904191035 61 39 0.9 1.7 0.00 0.17 0.09 80 1001.0
20260904190543 61 40 0.0 2.6 0.00 0.17 0.09 80 1001.2
20260904190019 61 40 0.0 2.6 0.00 0.17 0.09 83 1001.1
20260904185525 61 41 0.9 4.3 0.00 0.17 0.09 83 1001.2
20260904185036 61 22 1.7 4.3 0.00 0.17 0.09 85 1001.1
20260904184615 61 42 0.0 2.6 0.00 0.17 0.09 86 1001.2
20260904184005 60 41 0.0 0.0 0.00 0.17 0.09 85 1001.1
20260904183514 59 41 0.0 0.0 0.00 0.17 0.09 84 1001.0
20260904183048 59 41 0.0 0.0 0.00 0.17 0.09 85 1000.9
20260904182559 59 42 0.0 0.0 0.00 0.17 0.09 84 1001.0
20260904182003 59 45 0.0 0.0 0.00 0.17 0.09 84 1001.0
20260904181540 59 45 0.0 0.0 0.00 0.17 0.09 86 1000.9
20260904181045 59 360 0.0 0.9 0.00 0.17 0.09 85 1000.8
20260904180556 59 360 0.0 0.9 0.00 0.17 0.09 86 1000.9
20260904180041 59 360 0.0 2.6 0.00 0.17 0.09 87 1000.8
20260904175530 59 360 0.9 2.6 0.00 0.17 0.09 87 1000.8
20260904175035 58 355 0.9 2.6 0.00 0.17 0.09 87 1000.7
20260904174505 58 355 0.0 0.0 0.00 0.17 0.09 87 1000.7
20260904174020 58 355 0.0 0.0 0.00 0.17 0.09 88 1000.7
20260904173526 58 355 0.0 0.0 0.00 0.17 0.09 87 1000.7
20260904173054 57 355 0.0 0.0 0.00 0.17 0.09 88 1000.7
20260904172556 57 306 0.0 2.6 0.00 0.17 0.09 88 1000.7
20260904172003 57 306 0.0 2.6 0.00 0.17 0.09 88 1000.7
20260904171608 57 306 0.0 1.7 0.00 0.17 0.09 88 1000.7
20260904171046 57 305 0.0 2.6 0.00 0.17 0.09 88 1000.6
20260904170552 57 301 0.9 2.6 0.00 0.17 0.09 89 1000.6
20260904170029 57 301 0.9 2.6 0.00 0.17 0.09 89 1000.6
20260904165533 57 301 0.0 2.6 0.01 0.17 0.09 89 1000.5
20260904165043 57 300 0.9 2.6 0.01 0.17 0.09 89 1000.5
20260904164519 57 300 0.0 0.9 0.01 0.17 0.09 89 1000.5
20260904164027 57 300 0.0 1.7 0.01 0.17 0.09 89 1000.4
20260904163535 57 300 0.0 1.7 0.01 0.17 0.09 90 1000.4
20260904163102 57 300 0.0 2.6 0.01 0.17 0.09 90 1000.4
20260904162506 56 300 0.9 2.6 0.01 0.17 0.09 90 1000.4
20260904162012 56 278 0.0 2.6 0.01 0.17 0.09 90 1000.3
20260904161555 56 278 0.0 2.6 0.01 0.17 0.09 90 1000.3
20260904161044 56 278 0.0 0.0 0.01 0.17 0.09 91 1000.2
20260904160550 55 277 0.0 0.0 0.01 0.17 0.09 90 1000.2
20260904160033 55 276 0.0 0.0 0.01 0.21 0.09 91 1000.3
20260904155529 55 276 0.0 0.0 0.00 0.20 0.08 91 1000.3
20260904155036 54 276 0.0 0.0 0.00 0.20 0.08 91 1000.3
20260904154558 54 276 0.0 0.0 0.00 0.20 0.08 91 1000.3
20260904154007 54 276 0.0 0.0 0.00 0.20 0.08 91 1000.3
20260904153505 54 277 0.0 0.0 0.00 0.20 0.08 91 1000.3
20260904153051 54 277 0.0 0.0 0.00 0.20 0.08 91 1000.3
20260904152549 53 277 0.0 0.0 0.00 0.20 0.08 91 1000.2
20260904152050 53 277 0.0 0.0 0.00 0.20 0.08 91 1000.1
20260904151524 53 277 0.0 0.0 0.00 0.20 0.08 91 1000.1
20260904151030 53 276 0.0 0.0 0.00 0.20 0.08 91 1000.0
20260904150536 53 276 0.0 0.0 0.00 0.20 0.08 91 1000.1
20260904150106 53 276 0.0 0.0 0.00 0.22 0.08 91 1000.0
20260904145517 53 276 0.0 0.0 0.00 0.22 0.08 91 1000.0
20260904145029 53 276 0.0 0.0 0.00 0.22 0.08 91 999.9
20260904144550 53 276 0.0 0.0 0.00 0.22 0.08 91 999.8
20260904144054 53 276 0.0 0.0 0.00 0.22 0.08 91 999.8
20260904143602 53 276 0.0 0.0 0.00 0.22 0.08 91 999.7
20260904143028 53 276 0.0 0.0 0.00 0.22 0.08 91 999.7
20260904142532 53 276 0.0 0.0 0.00 0.22 0.08 90 999.6
20260904142039 53 276 0.0 0.0 0.00 0.22 0.08 91 999.6
20260904141516 53 277 0.0 0.0 0.00 0.22 0.08 90 999.6
20260904141019 53 276 0.0 0.9 0.00 0.22 0.08 90 999.5
20260904140524 53 276 0.0 0.9 0.00 0.22 0.08 90 999.5
20260904140053 53 277 0.0 0.9 0.00 0.24 0.08 90 999.4
20260904135558 53 276 0.0 2.6 0.00 0.24 0.08 90 999.4
20260904135107 53 277 0.9 2.6 0.00 0.24 0.08 90 999.4
20260904134548 53 284 0.0 0.0 0.00 0.24 0.08 90 999.4
20260904134055 53 284 0.0 0.0 0.00 0.24 0.08 90 999.4
20260904133544 53 284 0.0 0.0 0.00 0.24 0.08 90 999.4
20260904133030 53 284 0.0 0.0 0.00 0.24 0.08 90 999.3
20260904132532 53 284 0.0 0.0 0.00 0.24 0.08 90 999.3
20260904132033 53 284 0.0 0.0 0.00 0.24 0.08 90 999.2
20260904131601 53 284 0.0 0.0 0.00 0.24 0.08 90 999.2
20260904131005 53 284 0.0 0.0 0.00 0.24 0.08 90 999.1
20260904130510 53 284 0.0 0.0 0.00 0.24 0.08 90 999.1
20260904130044 53 284 0.0 0.0 0.01 0.31 0.08 90 999.1
20260904125556 53 284 0.0 0.0 0.01 0.31 0.08 90 999.1
20260904125100 53 284 0.0 0.0 0.01 0.31 0.08 90 999.0
20260904124509 53 284 0.0 0.0 0.01 0.31 0.08 90 999.0
20260904124015 53 284 0.0 0.0 0.01 0.31 0.08 90 999.0
20260904123527 53 284 0.0 0.0 0.01 0.31 0.08 90 999.0
20260904123054 53 284 0.0 0.0 0.02 0.31 0.08 90 998.9
20260904122556 53 284 0.0 0.0 0.02 0.31 0.08 90 999.0
20260904122002 53 284 0.0 0.0 0.03 0.31 0.08 90 998.8
20260904121539 53 284 0.0 0.0 0.04 0.31 0.08 90 998.7
20260904121039 53 284 0.0 0.0 0.04 0.31 0.08 90 998.8
20260904120544 53 284 0.0 0.0 0.05 0.31 0.08 90 998.7
20260904120018 53 284 0.0 0.0 0.05 0.30 0.07 90 998.6
20260904115522 53 284 0.0 0.0 0.05 0.30 0.07 90 998.7
20260904115032 53 284 0.0 0.0 0.06 0.30 0.07 90 998.6
20260904114605 53 284 0.0 0.0 0.07 0.30 0.07 90 998.6
20260904114002 53 284 0.0 0.0 0.07 0.30 0.07 90 998.6
20260904113506 53 284 0.0 0.0 0.07 0.30 0.07 90 998.5
20260904113033 53 284 0.0 0.0 0.06 0.28 0.06 90 998.5
20260904112537 53 284 0.0 0.0 0.06 0.28 0.06 90 998.4
20260904112039 52 284 0.0 0.0 0.05 0.28 0.05 90 998.4
20260904111515 52 284 0.0 0.0 0.04 0.27 0.04 90 998.3
20260904111022 52 284 0.0 0.0 0.04 0.27 0.04 90 998.3
20260904110525 52 313 0.0 0.0 0.03 0.26 0.03 90 998.3
20260904110050 52 313 0.0 0.0 0.02 0.25 0.02 90 998.2
20260904105558 52 313 0.0 0.0 0.02 0.25 0.02 90 998.3
20260904105108 52 313 0.0 0.0 0.01 0.24 0.01 90 998.3
20260904104600 52 313 0.0 0.0 0.00 0.23 0.00 89 998.3
20260904104045 52 313 0.0 0.0 0.00 0.23 0.00 90 998.3
20260904103553 52 313 0.0 0.0 0.00 0.23 0.00 90 998.3
20260904103024 52 313 0.0 0.0 0.00 0.23 0.00 89 998.2
20260904102530 52 313 0.0 0.0 0.00 0.23 0.00 89 998.1
20260904102039 52 313 0.0 0.0 0.00 0.23 0.00 89 998.2
20260904101505 52 313 0.0 0.0 0.00 0.23 0.00 89 998.3
20260904101016 51 313 0.0 0.0 0.00 0.23 0.00 89 998.2
20260904100525 51 313 0.0 0.0 0.00 0.23 0.00 89 998.1
20260904100109 51 313 0.0 0.0 0.00 0.24 0.00 89 998.1
20260904095556 51 313 0.0 0.0 0.00 0.24 0.00 89 998.2
20260904095004 51 313 0.0 0.0 0.00 0.24 0.00 89 998.1
20260904094550 52 313 0.0 0.0 0.00 0.24 0.00 89 998.2
20260904094036 52 313 0.0 0.0 0.00 0.24 0.00 89 998.1
20260904093541 52 313 0.0 0.0 0.00 0.24 0.00 89 998.1
20260904093017 52 313 0.0 0.0 0.00 0.24 0.00 89 998.1
20260904092523 52 313 0.0 0.0 0.00 0.24 0.00 89 998.1
20260904092023 52 313 0.0 0.0 0.00 0.24 0.00 89 997.9
20260904091552 52 313 0.0 0.0 0.00 0.24 0.00 89 997.9
20260904091059 52 313 0.0 0.0 0.00 0.24 0.00 89 997.9
20260904090559 53 313 0.0 0.0 0.00 0.24 0.00 89 997.9
20260904090034 53 313 0.0 0.0 0.00 0.24 0.00 89 998.0
20260904085542 53 313 0.0 0.0 0.00 0.24 0.00 89 997.9
20260904085048 53 313 0.0 0.0 0.00 0.24 0.00 89 997.9
20260904084518 53 313 0.0 0.0 0.00 0.24 0.00 89 997.9
20260904084029 53 313 0.0 0.0 0.00 0.24 0.00 89 997.9
20260904083535 53 313 0.0 0.0 0.00 0.24 0.00 89 997.9
20260904083102 53 313 0.0 0.0 0.00 0.24 0.00 89 997.9
20260904082504 53 313 0.0 0.0 0.00 0.24 0.00 89 997.9
20260904082016 53 313 0.0 0.0 0.00 0.24 0.00 89 998.0
20260904081548 53 313 0.0 0.0 0.00 0.24 0.00 89 998.0
20260904081056 53 313 0.0 0.0 0.00 0.24 0.00 89 997.9
20260904080602 53 313 0.0 0.0 0.00 0.24 0.00 89 998.0
20260904080040 53 313 0.0 0.0 0.00 0.24 0.00 89 997.9
20260904075538 53 313 0.0 0.0 0.00 0.24 0.00 89 998.0
20260904075046 53 313 0.0 0.0 0.00 0.24 0.00 89 998.2
20260904074528 53 313 0.0 0.0 0.00 0.24 0.00 89 998.1
20260904074030 53 313 0.0 0.0 0.00 0.24 0.00 89 998.1
20260904073536 53 313 0.0 0.0 0.00 0.24 0.00 89 998.1
20260904073013 53 313 0.0 0.0 0.00 0.24 0.00 88 998.0
20260904072508 53 313 0.0 0.0 0.00 0.24 0.00 89 998.1
20260904072011 53 313 0.0 0.0 0.00 0.24 0.00 89 998.1
20260904071553 53 313 0.0 0.0 0.00 0.24 0.00 89 998.0
20260904071057 53 313 0.0 0.0 0.00 0.24 0.00 88 997.9
20260904070556 53 313 0.0 0.0 0.00 0.24 0.00 88 997.9
20260904070040 53 313 0.0 0.0 0.00 0.24 0.24 88 997.9
20260904065533 53 313 0.0 0.0 0.00 0.24 0.24 88 997.9
20260904065038 54 313 0.0 0.0 0.00 0.24 0.24 88 998.0
20260904064607 54 313 0.0 0.0 0.00 0.24 0.24 88 998.0
20260904064004 54 313 0.0 0.0 0.00 0.24 0.24 88 997.9
20260904063520 54 313 0.0 0.0 0.00 0.24 0.24 88 997.9
20260904063044 54 313 0.0 0.0 0.00 0.24 0.24 88 997.9
20260904062542 54 313 0.0 0.0 0.00 0.24 0.24 88 997.8
20260904062051 54 313 0.0 0.0 0.00 0.24 0.24 88 997.8
20260904061527 54 313 0.0 0.0 0.00 0.24 0.24 88 997.8
20260904061016 54 313 0.0 0.0 0.00 0.24 0.24 88 997.8
20260904060524 54 313 0.0 0.0 0.00 0.24 0.24 88 997.7
20260904060120 54 313 0.0 0.0 0.00 0.25 0.24 88 997.8
20260904055502 54 313 0.0 0.0 0.00 0.25 0.24 88 997.8
20260904055006 54 313 0.0 0.0 0.00 0.25 0.24 88 997.8
20260904054548 54 313 0.0 0.0 0.00 0.25 0.24 88 997.9
20260904054048 55 313 0.0 0.0 0.00 0.25 0.24 88 997.9
20260904053556 55 313 0.0 0.0 0.00 0.25 0.24 88 997.9
20260904053110 55 313 0.0 0.0 0.00 0.25 0.24 88 997.8
20260904052542 55 313 0.0 0.0 0.00 0.25 0.24 88 997.9
20260904052048 55 313 0.0 0.0 0.00 0.25 0.24 88 997.9
20260904051529 55 313 0.0 0.0 0.00 0.25 0.24 88 997.8
20260904051031 55 313 0.0 0.0 0.00 0.25 0.24 88 997.9
20260904050525 55 313 0.0 0.0 0.00 0.25 0.24 88 998.0
20260904050036 55 313 0.0 0.0 0.00 0.25 0.24 88 998.0
20260904045542 55 313 0.0 0.0 0.00 0.25 0.24 88 997.9
20260904045050 55 313 0.0 0.0 0.00 0.25 0.24 88 997.9
20260904044515 55 313 0.0 0.9 0.00 0.25 0.24 88 998.0
20260904044021 55 313 0.0 0.9 0.00 0.25 0.24 88 998.0
20260904043529 55 313 0.0 1.7 0.00 0.25 0.24 88 998.0
20260904043014 55 313 0.0 1.7 0.00 0.25 0.24 88 998.0
20260904042520 55 313 0.0 1.7 0.00 0.25 0.24 88 997.9
20260904042028 55 279 0.0 0.9 0.00 0.25 0.24 88 997.8
20260904041557 55 279 0.0 0.0 0.00 0.25 0.24 88 997.8
20260904041059 55 278 0.0 2.6 0.00 0.25 0.24 88 997.9
20260904040503 55 278 0.0 3.5 0.00 0.25 0.24 88 997.8
20260904040046 55 252 0.9 3.5 0.00 0.25 0.24 88 997.9
20260904035548 55 24 0.0 7.8 0.00 0.25 0.24 88 997.8
20260904035055 55 134 0.0 7.8 0.00 0.25 0.24 88 997.8
20260904034529 55 80 0.0 0.0 0.00 0.25 0.24 88 997.8
20260904034042 55 80 0.0 0.9 0.00 0.25 0.24 88 997.8
20260904033552 55 355 0.0 0.9 0.00 0.25 0.24 88 997.6
20260904033026 55 355 0.0 1.7 0.00 0.25 0.24 87 997.6
20260904032537 56 355 0.0 0.9 0.00 0.25 0.24 87 997.6
20260904032051 56 355 0.0 0.9 0.00 0.25 0.24 87 997.6
20260904031525 56 355 0.0 0.0 0.00 0.25 0.24 87 997.5
20260904031033 56 355 0.0 1.7 0.00 0.25 0.24 87 997.4
20260904030541 56 355 0.0 2.6 0.00 0.25 0.24 87 997.4
20260904030007 56 355 0.0 2.6 0.00 0.25 0.24 87 997.4
20260904025522 56 247 0.0 2.6 0.00 0.25 0.24 87 997.3
20260904025030 56 244 0.0 4.3 0.00 0.25 0.24 87 997.4
20260904024619 56 254 0.0 4.3 0.00 0.25 0.24 87 997.4
20260904024002 56 94 0.0 5.2 0.00 0.25 0.24 87 997.4
20260904023511 56 144 0.0 1.7 0.00 0.25 0.24 87 997.2
20260904023053 56 144 0.0 0.0 0.00 0.25 0.24 86 997.3